Regional Weather Roundup
Issued by NWS

Home | Current Version | Previous Version | Graphics & Text | Print | Product List | Glossary Off
Versions: 1 2 3 4 5 6 7 8 9 10 11 12 13 14 15 16 17 18 19 20 21 22 23 24 25 26 27 28 29 30 31 32 33 34 35 36 37 38 39 40 41 42 43 44 45 46 47 48 49 50

000
ASUS43 KDMX 171407
RWRIA

WEATHER ROUNDUP FOR IOWA
NATIONAL WEATHER SERVICE DES MOINES IA
800 AM CST WED DEC 17 2014

NOTE: "FAIR" INDICATES FEW OR NO CLOUDS BELOW 12,000 FEET WITH NO
SIGNIFICANT WEATHER AND/OR OBSTRUCTIONS TO VISIBILITY.

* - THESE STATIONS ARE NOT NWS STATIONS...THUS NOT UNDER NWS
QUALITY CONTROL.  THEY ALSO DO NOT REPORT WEATHER SUCH
AS PRECIPITATION OR FOG.

IAZ001>003-012>014-020>022-031>034-043>046-171500-
   NORTHWEST IOWA

CITY           SKY/WX    TMP DP  RH WIND       PRES   REMARKS
CARROLL *      CLEAR     10   7  85 W7        30.34S WCI   0
CHEROKEE *     PTCLDY     9   7  92 CALM      30.33F
DENISON *      CLEAR     12   9  85 CALM      30.32F
LE MARS *      CLEAR      9   7  92 CALM      30.35F
ORANGE CITY *  CLEAR      9   7  92 CALM      30.31S
SHELDON *      PTCLDY     5   3  92 NW3       30.31R
SIOUX CITY     PTCLDY    10   6  84 W3        30.37R
SPENCER        PTCLDY     8   4  83 W5        30.31S WCI   0
STORM LAKE *   CLEAR      9   5  85 NW7       30.31S WCI  -3
$$

IAZ055>058-069>071-079>083-090>094-171500-
   SOUTHWEST IOWA

CITY           SKY/WX    TMP DP  RH WIND       PRES   REMARKS
ATLANTIC *     CLEAR     16  12  86 N3        30.34F
AUDUBON *      CLEAR     12   7  79 CALM      30.33S
CLARINDA *     MOCLDY    19  14  79 NE5       30.38R WCI  13
COUNCIL BLFS * CLEAR     16  14  93 CALM      30.33R
CRESTON *      CLEAR     16  10  79 N5        30.33S WCI   9
HARLAN  *      CLEAR     14  14 100 N7        30.37F WCI   4
LAMONI         MOCLDY    17  12  80 N8        30.33S WCI   7
RED OAK *      MOCLDY    16  12  86 NE3       30.36R
SHENANDOAH *   MOCLDY    19  16  86 N3        30.38R
$$

IAZ047>049-059>061-072>074-084-171500-
   CENTRAL IOWA

CITY           SKY/WX    TMP DP  RH WIND       PRES   REMARKS
AMES           MOCLDY    13   9  84 NW5       30.33S WCI   5
ANKENY *       CLEAR     14  10  85 NW6       30.35S WCI   5
CHARITON *     MOCLDY    16  12  86 NW8       30.34R WCI   5
DES MOINES     PTCLDY    15   9  76 NW7       30.35S WCI   5
GRINNELL*      PTCLDY    14  10  85 W7        30.32S WCI   4
KNOXVILLE *    CLEAR     16  10  79 W7        30.33S WCI   6
MARSHALLTOWN   PTCLDY    13  10  88 W7        30.31S WCI   3
PELLA *        PTCLDY    16  12  86 NW7       30.36R WCI   6
PERRY *          N/A     12  10  92 W7        30.35S WCI   2
$$

IAZ004>006-015-016-023>025-035-036-171500-
   NORTH CENTRAL IOWA

CITY           SKY/WX    TMP DP  RH WIND       PRES   REMARKS
ALGONA *       CLEAR     10   9  92 NW8       30.32S WCI  -1
CLARION *      PTCLDY    12  10  92 NW6       30.32S WCI   3
ESTHERVILLE    CLEAR      9   6  88 NW8       30.31R WCI  -3
FORT DODGE *   PTCLDY    10   5  79 NW6       30.32F WCI   1
MASON CITY     CLEAR      9   6  88 N14       30.31R WCI  -7
FOREST CITY *  FLURRIES  10   7  85 N8        30.29S WCI  -1
IOWA FALLS *   FLURRIES  13  10  87 W9        30.32R WCI   1
$$

IAZ007>011-017>019-026>030-037>042-050>054-066-171500-
   NORTHEAST IOWA

CITY           SKY/WX    TMP DP  RH WIND       PRES   REMARKS
CEDAR RAPIDS   PTCLDY    15  12  88 W9        30.30R WCI   3
CHARLES CITY * CLOUDY    12   9  85 NW8       30.30S WCI   1
CLINTON *      CLOUDY    21  16  79 W14       30.30S WCI   8
DECORAH *      FLURRIES  16  12  86 NW9       30.26R WCI   4
DUBUQUE        CLOUDY    19  16  88 NW10      30.25S WCI   7
MONTICELLO *   CLOUDY    18  16  93 NW12G17   30.28S WCI   5
OELWEIN *      FLURRIES  14  12  92 NW10      30.29S WCI   1
WATERLOO       CLEAR     12   9  87 NW7       30.31S WCI   1
$$

IAZ064-065-067-068-078-171500-
   EAST CENTRAL IOWA

CITY           SKY/WX    TMP DP  RH WIND       PRES   REMARKS
DAVENPORT      CLOUDY    20  14  77 NW15      30.29S WCI   6
IOWA CITY      CLOUDY    20  15  81 W12       30.33S WCI   8
MT. PLEASANT * CLOUDY    19  14  79 W8        30.34S WCI   9
MUSCATINE *    CLOUDY    21  16  79 W10       30.34R WCI  10
QUAD CITIES    CLOUDY    22  16  78 NW14      30.30S WCI   9
$$

IAZ062-063-075>077-085>089-095>099-171500-
   SOUTHEAST IOWA

CITY           SKY/WX    TMP DP  RH WIND       PRES   REMARKS
BURLINGTON     CLOUDY    20  15  81 NW7       30.33R WCI  11
FAIRFIELD *    CLOUDY    19  14  79 NW9       30.34S WCI   9
FORT MADISON * CLOUDY    19  16  86 NW8       30.35S WCI   9
KEOKUK *       CLOUDY    19  16  86 NW6       30.35R WCI  11
OSKALOOSA *    CLOUDY    18  14  86 NW8       30.34S WCI   7
CENTERVILLE *  CLOUDY    18  14  86 NW7       30.35S WCI   8
OTTUMWA        CLOUDY    19  13  77 NW9       30.34R WCI   8
WASHINGTON *   CLOUDY    21  19  93 W9        30.33S WCI  11
$$

ABBREVIATIONS USED IN REMARKS
   TC - TEMPERATURES IN CELSIUS
  WCI - WIND CHILL INDEX
   HX - HEAT INDEX
  VSB - VISIBILITY
$$



USA.gov is the U.S. government's official web portal to all federal, state and local government web resources and services.